マクノート彗星

260P/McNaught (2005)

English version
Home page
Updated on June 9, 2012

---------------------------------------------------------------------

・ プロフィール

符号 260P/2005 K3
発見日 2005年5月20日
発見光度 17.3等
発見者 R. H. McNaught (Siding Spring)

・ 写真集

・ 軌道要素

Epoch 2005 Aug. 18.0 TT = JDT 2453600.5
T 2005 Aug. 11.40997 TT                                 MPC
q   1.5091356            (2000.0)            P               Q
n   0.13882465     Peri.   15.59122     +0.98983624     -0.13712803
a   3.6939555      Node   352.00087     +0.08314097     +0.77298401
e   0.5914581      Incl.   15.71210     +0.11537676     +0.61942846
P   7.10
From 514 observations 2005 May 20-2012 May 31, mean residual 0".5.

・ 星図

・ 光度変化

        m1 = 12.0 + 5 logΔ + 14.0 log r

---------------------------------------------------------------------

軌道要素はM.P.E.C. 2012-L04に掲載されたものです。
星図は StellaNavigator Ver.2.0 for Windows (アストロアーツ 編著 / アスキー出版局刊) で作成したものです。
光度グラフはComet for Windowsで作成したものです。

---------------------------------------------------------------------

Copyright(C) Seiichi Yoshida (comet@aerith.net). All rights reserved.